www.pogodaiklimat.ru

Погода и климат >> Архив погоды >> Украина >> Харьков


АРХИВ ПОГОДЫ в Харькове

Время (UTC), дата Ветер
(напр.,м/с)
 
Видим.   Явления Облачность Т
(С)
Тd
(С)
f
(%)
Тe
(С)
Тes
(С)
Комфортность P
(гПа)
Po
(гПа)
Тmin
(С)
Tmax
(С)
R
(мм)
R24
(мм)
S
(см)
03 5.12 ЮЗ 2 10 км 10/10 1000 м
[Sc]
+0.2 -0.9 92 -4 -4 по сезону 1014.6 995.2
06 5.12 ЮЗ 2 10 км в посл. час крупа 10/10 270 м
[Cb cap]
+0.2 -0.9 92 -4 -4 по сезону 1014.8 995.4 +0.2 0.0
09 5.12 З 3 10 км {ливн. осадки} 10/10 1350 м
[Sc]
+0.6 -1.4 86 -4 -4 по сезону 1014.7 995.4
12 5.12 З 3 10 км {ливн. осадки} 10/10 1320 м
[Sc]
+0.8 -2.8 77 -4 -4 по сезону 1014.5 995.2
15 5.12 ЮЗ 3 10 км 10/6 500 м
[Sc Ac und]
+0.3 -2.4 82 -4 -4 по сезону 1015.2 995.8
18 5.12 ЮЗ 2 7000 м слабый снег 10/10 300 м
[Sc]
+0.3 -1.7 86 -3 -3 по сезону 1015.3 995.9 +0.8 0.0
21 5.12 З 2 7000 м слабый ливневой снег 10/10 210 м
[Cb cap]
+0.3 -0.8 92 -3 -3 по сезону 1015.1 995.7
00 6.12 З 3 7000 м дымка {ливн. осадки, снег} 10/10 240 м
[Cb cap]
+0.4 -0.7 92 -4 -4 по сезону 1015.0 995.6
03 6.12 З 3 7000 м дымка {ливн. осадки} 9/8 300 м
[Sc Ac trans]
-0.2 -1.4 92 -5 -5 по сезону 1014.5 995.1
06 6.12 ЮЗ 3 7000 м дымка {ливн. осадки} 9/8 300 м
[Sc Ac trans]
+0.1 -1.0 92 -5 -5 по сезону 1014.0 994.6 -0.4 0.0
09 6.12 ЮЗ 7 10 км 9/9 750 м
[Sc]
+0.6 -3.7 73 -6 -6 по сезону 1012.1 992.8
12 6.12 ЮЗ 8 10 км 10/8 750 м
[Sc As op]
+1.0 -3.9 70 -6 -6 по сезону 1009.0 989.8
15 6.12 ЮЗ 8 10 км 10/8 750 м
[Sc As op]
+1.0 -3.9 70 -6 -6 по сезону 1009.0 989.8
18 6.12 З 5 10 км {ливн. осадки, снег} 10/10 360 м
[Sc]
+0.4 -0.4 94 -6 -6 по сезону 1007.1 987.9 +2.1 1
21 6.12 З 4 10 км 10/10 900 м
[Sc]
+0.8 -1.5 85 -4 -4 по сезону 1007.7 988.5
00 7.12 З 4 10 км 10/10 1140 м
[Sc]
+0.4 -2.2 83 -5 -5 по сезону 1008.8 989.5
03 7.12 СЗ 5 10 км 10/10 1020 м
[Sc]
-0.4 -4.9 72 -6 -6 по сезону 1009.6 990.3
06 7.12 З 3 10 км {снег} 8/5 1000 м
[Sc Ac trans]
-1.3 -6.0 70 -6 -6 по сезону 1010.9 991.5 -1.5 0.0 1
09 7.12 З 6 10 км 9/5 600 м
[Sc Ac trans]
-0.1 -4.2 74 -7 -6 по сезону 1011.4 992.1
12 7.12 З 5 10 км 9/8 700 м
[Sc Ac trans]
+0.1 -3.6 76 -6 -6 по сезону 1011.5 992.2
15 7.12 З 4 10 км 9/9 1020 м
[Sc]
-0.1 -3.7 77 -5 -5 по сезону 1012.8 993.4
18 7.12 СЗ 3 10 км 8/8 600 м
[Sc]
-0.7 -2.9 85 -6 -6 по сезону 1014.0 994.6 +0.2
21 7.12 З 1 4600 м дымка ясно -2.6 -3.6 93 -5 -5 по сезону 1015.3 995.7
00 8.12 З 2 1500 м в посл. час туман 5/0
[Ac trans]
-3.7 -4.2 96 -8 -8 по сезону 1016.0 996.3
03 8.12 штиль 0 4700 м дымка 9/0
[Ac trans]
-3.8 -4.6 94 -5 -5 по сезону 1016.6 996.9
06 8.12 ЮВ 2 5000 м дымка 9/0
[Ac trans]
-3.3 -4.4 92 -8 -8 по сезону 1017.0 997.3 -4.2 1
09 8.12 ЮВ 4 10 км 9/5 600 м
[Sc Ac trans]
-0.8 -3.0 85 -6 -6 по сезону 1017.1 997.6
12 8.12 ЮВ 4 10 км {снег} 10/10 300 м
[Sc]
+0.4 -1.0 90 -5 -5 по сезону 1016.3 996.9
15 8.12 ЮВ 3 6000 м снежные зёрна 10/10 120 м
[St]
+0.2 -0.9 92 -5 -5 по сезону 1016.4 997.0
18 8.12 ЮВ 3 400 м слабая морось {снег} туман ясно +0.6 +0.6 100 -4 -4 по сезону 1016.9 997.5 +0.6 0.0
21 8.12 Ю 3 6000 м дымка {морось, туман} 10/10 150 м
[St]
+1.8 +1.0 94 -3 -3 по сезону 1017.0 997.7
00 9.12 Ю 4 3900 м дымка {морось, туман} 9/9 120 м
[Sc]
+0.8 +0.3 96 -5 -5 по сезону 1016.9 997.5
03 9.12 ЮВ 4 1800 м в посл. час туман 9/9 120 м
[St]
+0.2 -0.1 98 -5 -5 по сезону 1016.5 997.1
06 9.12 ЮВ 4 3200 м дымка {туман} 10/10 120 м
[Sc]
+0.6 0.0 96 -5 -5 по сезону 1016.4 997.0 +0.1 0.0
09 9.12 ЮВ 4 7000 м дымка 10/10 210 м
[Sc]
+2.2 +0.9 91 -3 -3 по сезону 1014.9 995.7
12 9.12 ЮВ 3 3400 м дымка 10/10 150 м
[Sc]
+3.0 +2.0 93 -1 -1 тепло 1013.9 994.7
15 9.12 ЮВ 3 4400 м дымка 9/9 540 м
[Sc]
+3.0 +2.2 94 -1 -1 тепло 1013.5 994.4
18 9.12 ЮВ 3 7000 м дымка 9/9 570 м
[Sc]
+3.2 +1.9 91 -1 -1 тепло 1013.1 994.0 +3.2
21 9.12 ЮВ 4 6000 м дымка 10/10 120 м
[Sc]
+4.0 +3.0 93 -1 -1 тепло 1012.6 993.5
00 10.12 ЮВ 4 1300 м в посл. час туман {морось} 10/10 90 м
[St]
+5.8 +5.6 99 +2 +2 тепло 1011.5 992.6
03 10.12 ЮВ 6 10 км 9/6 300 м
[Sc Ac trans]
+6.4 +5.0 91 +2 +2 тепло 1010.2 991.4
06 10.12 ЮВ 5 10 км 8/5 600 м
[Sc Ac trans Ci fib]
+5.3 +3.6 89 +1 +1 тепло 1009.9 991.0 +2.9 0.0
09 10.12 ЮВ 7 10 км 8/3 1000 м
[Sc Ac trans Ci fib]
+8.5 +5.4 81 +4 +4 тепло 1008.6 989.9
12 10.12 ЮВ 7 10 км {ливн. осадки} 8/5 600 м
[Cb cap Ac trans]
+9.6 +6.4 80 +6 +6 тепло 1006.1 987.5
15 10.12 ЮВ 10 10 км 9/5 1000 м
[Sc Ac trans]
+8.6 +5.8 83 +4 +4 тепло 1004.1 985.5
18 10.12 ЮВ 10 10 км слабый ливневой дождь 9/8 800 м
[Cb cap Ac trans]
+8.6 +4.6 76 +4 +4 тепло 1002.5 983.9 +10.2 0.3
21 10.12 ЮВ 7 10 км в посл. час ливневой дождь 10/10 600 м
[Cb cap]
+6.6 +4.8 88 +2 +2 тепло 1000.8 982.1
00 11.12 Ю 9 10 км в посл. час ливневой дождь 10/10 360 м
[Cb cap]
+2.0 +0.4 89 -5 -5 по сезону 1003.0 984.0
03 11.12 ЮЗ 10 4800 м слабый ливневой снег 10/10 300 м
[Cb cap]
-0.1 -1.2 92 -8 -8 по сезону 1006.3 987.1
06 11.12 ЮЗ 8
{18}
10 км в посл. час дождь со снегом {ливн. осадки} [диам. гололёда 1 мм] 9/9 630 м
[Sc]
-0.4 -2.8 84 -8 -8 по сезону 1011.7 992.3 -0.6 2 <0.5
09 11.12 ЮЗ 6 10 км 8/0
[Ac trans Ci]
+1.5 -3.6 69 -4 -4 по сезону 1015.3 996.0
12 11.12 Ю 4 10 км 8/5 600 м
[Sc Ci]
+2.0 -2.3 73 -3 -3 по сезону 1016.2 996.9
15 11.12 Ю 4 10 км 6/4 600 м
[Sc Ac trans]
+3.0 -0.5 78 -2 -2 по сезону 1015.3 996.1
18 11.12 Ю 5 10 км 10/6 300 м
[Sc Ac und]
+4.2 +1.9 85 -1 -1 тепло 1016.1 997.0 +4.2
21 11.12 Ю 3 10 км 10/10 330 м
[Sc]
+4.7 +3.0 89 +1 +1 тепло 1016.1 997.0
00 12.12 ЮВ 3 10 км 10/10 300 м
[Sc]
+4.9 +3.5 91 +1 +1 тепло 1015.7 996.6

 

Местоположение метеостанции Харьков (Харьковская область, Украина): широта 49.97 долгота 36.13 высота над уровнем моря 155 м.

В архиве по умолчанию представлена погода в Харькове за последнюю неделю. Архивные данные за месяц целиком и за предыдущие месяцы, начиная с января 2011 года, Вы можете получить, выбрав интересующий диапазон дат из раскрывающегося списка и нажав кнопку "Ввод!".

Внимание! Время в таблицах - всемирное. Для получения местного времени необходимо прибавить поправку, которая в Харькове равна 2 ч.

Смотрите также архив погоды в соседних городах и на ближайших метеорологических станциях:

Погода в Золочеве (Львовская область, Украина) (39 км)
Погода в Боходухове (Харьковская область, Украина) (50 км)
Погода в Комсомольском (Донецкая область, Украина) (50 км)
Погода в Коломаке (Харьковская область, Украина) (66 км)
Погода в Белгороде (Белгородская область, Россия) (80 км)
Погода в Краснограде (Харьковская область, Украина) (82 км)
Погода в Великом Бурлуке (Харьковская область, Украина) (90 км)
Погода в Готне (Белгородская область, Россия) (96 км)
Погода в Купянске (Харьковская область, Украина) (119 км)
Погода в Лозовой (Харьковская область, Украина) (120 км)

Пояснения к столбцам:

Ветер - указаны скорость ветра в м/с - средняя за 10 мин, порывы в срок и между сроками (в фигурных скобках) и направление, откуда дует ветер: С - северный, СВ - северо-восточный, В - восточный, ЮВ - юго-восточный, Ю - южный, ЮЗ - юго-западный, З - западный, СЗ - северо-западный.
Видимость - горизонтальная дальность видимости в метрах или километрах. При видимости от 1 до 10 км при отсутствии осадков обычно наблюдается дымка, при ухудшении видимости до 1 км и менее - туман. В сухую погоду видимость может ухудшаться дымом, пылью или мглою.
Явления - указаны атмосферные явления, наблюдавшиеся в срок или в последний час перед сроком; фигурными скобками обозначены явления, наблюдавшиеся между сроками (за 1-3 часа до срока); квадратными скобками обозначены град или гололедные отложения с указанием их диаметра в мм.
Облачность - указаны через наклонную черту общая и нижняя облачность в баллах и высота нижней границы облаков в метрах; квадратными скобками обозначены формы облаков: Ci - перистые, Cs - перисто-слоистые, Cc - перисто-кучевые, Ac - высококучевые, As - высокослоистые, Sc - слоисто-кучевые, Ns - слоисто-дождевые, Cu - кучевые, Cb - кучево-дождевые. Подробнее классификацию облаков см. в Атласе облаков (PDF).
T - Температура воздуха - температура, измеренная на высоте 2 м над землей.
Td - Температура точки росы - температура, при понижении до которой содержащийся в воздухе водяной пар достигнет насыщения.
f - Относительная влажность воздуха - влажноcть воздуха, измеренная на высоте 2 м над землей.
Te - Эффективная температура - температура, которую ощущает одетый по сезону человек в тени. Характеристика душности погоды. При расчете учитывается влияние влажности воздуха и скорости ветра на теплоощущения человека.
Tes - Эффективная температура на солнце - температура, которую ощущает человек, с поправкой на солнечный нагрев. Характеристика знойности погоды. Зависит от высоты солнца над горизонтом, облачности и скорости ветра. Ночью, в пасмурную погоду, а также при ветре 12 м/с и более поправка равна нулю.
P - Атмосферное давление - приведенное к уровню моря атмосферное давление.
Po - Атмосферное давление - измеренное на уровне метеостанции атмосферное давление.
Tmin - Минимальная температура - минимум температуры воздуха на высоте 2 м над землей.
Tmax - Максимальная температура - максимум температуры воздуха на высоте 2 м над землей.
R - Количество осадков - Количество выпавших осадков за период времени, мм. При наведении курсора мыши на число - период времени, за который выпало указанное количество осадков.
R24 - Количество осадков - Количество выпавших осадков за 24 часа, мм.
S - Снежный покров - Высота снежного покрова, см. При наведении курсора мыши на число - состояние снежного покрова и степень покрытия местности в баллах.